Erie, PA

3:02 AM EST on December 10, 2019 (GMT -0500)
Erie International

Weather History for KERI - October, 2019

Change the Weather History Date:

Tuesday, October 29, 2019

  Actual Average Record
Temperature  
Mean Temperature 58 °F 49 °F  
Max Temperature 64 °F 57 °F 75 °F (1946)
Min Temperature 50 °F 42 °F 26 °F (1965)
Degree Days  
Heating Degree Days 8 16  
Month to date heating degree days 238 347  
Since 1 July heating degree days 250 471  
Cooling Degree Days 0 0  
Month to date cooling degree days 22 7  
Year to date cooling degree days 847 636  
Growing Degree Days 8 (Base 50)    
Moisture  
Dew Point 47 °F    
Average Humidity 70    
Maximum Humidity 86    
Minimum Humidity 56    
Precipitation  
Precipitation 0.00 in 0.13 in 1.51 in (2012)
Month to date precipitation 2.33 3.81  
Year to date precipitation 31.96 34.25  
Snow  
Snow 0.00 in 0.00 in - ()
Month to date snowfall 0.0 0.1  
Since 1 July snowfall 0.0 0.1  
Since 1 September snowfall 0.0 0.1  
Snow Depth 0.00 in    
Sea Level Pressure  
Sea Level Pressure 30.12 in    
Wind  
Wind Speed 9 mph ()    
Max Wind Speed 18 mph    
Max Gust Speed 25 mph    
Visibility 10.0 miles    
Events      
T = Trace of Precipitation, MM = Missing Value Source: Averaged Metar Reports

Daily Weather History Graph

Daily Weather History Graph

Search for Another Location

Airport or City:

Astronomy

Oct. 29, 2019 Rise Set
Actual Time 7:49 AM EDT 6:18 PM EDT
Civil Twilight 7:20 AM EDT 6:47 PM EDT
Nautical Twilight 6:47 AM EDT 7:20 PM EDT
Astronomical Twilight 6:15 AM EDT 7:52 PM EDT
Moon 9:22 AM EDT (10/29) 7:40 PM EDT (10/29)
Length of Visible Light 11h 26m
Length of Day
10h 29m
Waxing Crescent, 3% of the Moon is Illuminated
Oct 29
Waxing Crescent
Nov 4
First Quarter
Nov 12
Full
Nov 19
Last Quarter
Nov 26
New

Hourly Weather History & Observations

Time (EDT) Temp. Dew Point Humidity Pressure Visibility Wind Dir Wind Speed Gust Speed Precip Events Conditions
12:51 AM 50.0 °F 41.0 °F 71% 30.06 in 10.0 mi SSE 9.2 mph - N/A   Clear
1:51 AM 52.0 °F 42.1 °F 69% 30.06 in 10.0 mi SSE 10.4 mph - N/A   Clear
2:51 AM 54.0 °F 42.1 °F 64% 30.04 in 10.0 mi SSE 12.7 mph - N/A   Clear
3:51 AM 54.0 °F 43.0 °F 66% 30.03 in 10.0 mi South 9.2 mph - N/A   Clear
4:51 AM 55.0 °F 43.0 °F 64% 30.03 in 10.0 mi South 16.1 mph - N/A   Clear
5:51 AM 55.0 °F 44.1 °F 67% 30.04 in 10.0 mi South 13.8 mph - N/A   Clear
6:51 AM 55.0 °F 44.1 °F 67% 30.06 in 10.0 mi SSE 15.0 mph 23.0 mph N/A   Clear
7:51 AM 54.0 °F 45.0 °F 72% 30.08 in 10.0 mi South 11.5 mph - N/A   Clear
8:51 AM 57.0 °F 46.0 °F 67% 30.10 in 10.0 mi South 13.8 mph - N/A   Clear
9:51 AM 59.0 °F 46.9 °F 64% 30.11 in 10.0 mi South 13.8 mph - N/A   Mostly Cloudy
10:51 AM 64.0 °F 48.9 °F 58% 30.10 in 10.0 mi South 11.5 mph - N/A   Scattered Clouds
11:51 AM 64.9 °F 48.9 °F 56% 30.11 in 10.0 mi WSW 8.1 mph - N/A   Overcast
12:51 PM 61.0 °F 50.0 °F 67% 30.13 in 10.0 mi WSW 9.2 mph 19.6 mph N/A   Mostly Cloudy
1:51 PM 61.0 °F 51.1 °F 70% 30.14 in 10.0 mi West 12.7 mph - N/A   Overcast
2:51 PM 60.1 °F 51.1 °F 72% 30.13 in 10.0 mi WSW 11.5 mph 18.4 mph N/A   Overcast
3:51 PM 61.0 °F 48.9 °F 64% 30.14 in 10.0 mi West 11.5 mph - N/A   Mostly Cloudy
4:51 PM 59.0 °F 48.9 °F 69% 30.14 in 10.0 mi West 8.1 mph - N/A   Overcast
5:51 PM 59.0 °F 48.9 °F 69% 30.15 in 10.0 mi WSW 6.9 mph - N/A   Mostly Cloudy
6:51 PM 57.9 °F 50.0 °F 75% 30.17 in 10.0 mi West 3.5 mph - N/A   Overcast
7:51 PM 57.0 °F 50.0 °F 77% 30.20 in 10.0 mi Calm Calm - N/A   Mostly Cloudy
8:51 PM 54.0 °F 48.9 °F 83% 30.20 in 10.0 mi South 3.5 mph - N/A   Partly Cloudy
9:51 PM 53.1 °F 48.9 °F 86% 30.22 in 10.0 mi South 4.6 mph - N/A   Mostly Cloudy
10:51 PM 54.0 °F 48.9 °F 83% 30.22 in 10.0 mi SSW 5.8 mph - N/A   Clear
11:51 PM 53.1 °F 46.9 °F 80% 30.22 in 10.0 mi South 4.6 mph - N/A   Clear